Hammond, LA

3:18 PM CST on December 09, 2019 (GMT -0600)
Hammond Municipal

Weather History for KHDC - October, 2019

Change the Weather History Date:

Saturday, October 12, 2019

  Actual Average (KMSY) Record (KMSY)
Temperature  
Mean Temperature 62 °F -  
Max Temperature 69 °F 81 °F 91 °F (1991)
Min Temperature 55 °F 60 °F 46 °F (1971)
Degree Days  
Heating Degree Days 3    
Growing Degree Days 12 (Base 50)    
Moisture  
Dew Point 54 °F    
Average Humidity 72    
Maximum Humidity 94    
Minimum Humidity 56    
Precipitation  
Precipitation 0.06 in - - ()
Sea Level Pressure  
Sea Level Pressure 30.07 in    
Wind  
Wind Speed 10 mph (North)    
Max Wind Speed 15 mph    
Max Gust Speed 20 mph    
Visibility 10 miles    
Events      
Averages and records for this station are not official NWS values.
T = Trace of Precipitation, MM = Missing Value Source: NWS Daily Summary

Daily Weather History Graph

Daily Weather History Graph

Search for Another Location

Airport or City:

Astronomy

Oct. 12, 2019 Rise Set
Actual Time 7:01 AM CDT 6:34 PM CDT
Civil Twilight 6:37 AM CDT 6:58 PM CDT
Nautical Twilight 6:09 AM CDT 7:26 PM CDT
Astronomical Twilight 5:41 AM CDT 7:53 PM CDT
Moon 6:21 PM CDT (10/12) 5:49 AM CDT (10/12)
Length of Visible Light 12h 20m
Length of Day
11h 32m
Waxing Gibbous, 99% of the Moon is Illuminated
Oct 12
Waxing Gibbous
Oct 13
Full
Oct 21
Last Quarter
Oct 27
New
Nov 4
First Quarter

Hourly Weather History & Observations

Time (CDT) Temp. Dew Point Humidity Pressure Visibility Wind Dir Wind Speed Gust Speed Precip Events Conditions
12:15 AM 68.0 °F 64.4 °F 88% 30.04 in 10.0 mi North 9.2 mph - N/A   Mostly Cloudy
12:35 AM 68.0 °F 64.4 °F 88% 30.03 in 10.0 mi North 10.4 mph - 0.01 in   Overcast
12:55 AM 68.0 °F 64.4 °F 88% 30.04 in 10.0 mi North 9.2 mph - 0.01 in   Overcast
1:15 AM 66.2 °F 62.6 °F 88% 30.05 in 10.0 mi North 13.8 mph - N/A   Overcast
1:35 AM 64.4 °F 62.6 °F 94% 30.04 in 10.0 mi North 13.8 mph - N/A   Overcast
1:55 AM 62.6 °F 60.8 °F 94% 30.05 in 10.0 mi North 12.7 mph 17.3 mph N/A   Overcast
2:15 AM 62.6 °F 60.8 °F 94% 30.05 in 10.0 mi North 10.4 mph 18.4 mph N/A   Overcast
2:35 AM 62.6 °F 59.0 °F 88% 30.05 in 10.0 mi North 11.5 mph 18.4 mph N/A   Overcast
2:55 AM 62.6 °F 59.0 °F 88% 30.05 in 10.0 mi North 9.2 mph - N/A   Overcast
3:15 AM 62.6 °F 59.0 °F 88% 30.05 in 10.0 mi North 11.5 mph 16.1 mph N/A   Overcast
3:35 AM 62.6 °F 57.2 °F 82% 30.05 in 10.0 mi North 10.4 mph 18.4 mph N/A   Overcast
3:55 AM 60.8 °F 57.2 °F 88% 30.05 in 10.0 mi North 9.2 mph - N/A   Overcast
4:15 AM 60.8 °F 55.4 °F 82% 30.05 in 10.0 mi North 13.8 mph 17.3 mph N/A   Overcast
4:35 AM 60.8 °F 55.4 °F 82% 30.06 in 10.0 mi North 15.0 mph - 0.01 in   Overcast
4:55 AM 59.0 °F 55.4 °F 88% 30.05 in 10.0 mi North 12.7 mph - 0.01 in   Overcast
5:15 AM 59.0 °F 53.6 °F 82% 30.06 in 10.0 mi North 12.7 mph - N/A   Overcast
5:35 AM 59.0 °F 53.6 °F 82% 30.07 in 10.0 mi North 10.4 mph - N/A   Overcast
5:55 AM 59.0 °F 53.6 °F 82% 30.07 in 10.0 mi North 11.5 mph - N/A   Overcast
6:35 AM 55.4 °F 51.8 °F 88% 30.09 in 10.0 mi North 12.7 mph 17.3 mph N/A   Overcast
6:55 AM 55.4 °F 50.0 °F 82% 30.09 in 10.0 mi North 12.7 mph 17.3 mph N/A   Overcast
7:15 AM 55.4 °F 50.0 °F 82% 30.10 in 10.0 mi North 10.4 mph - N/A   Overcast
7:35 AM 55.4 °F 50.0 °F 82% 30.10 in 10.0 mi North 9.2 mph - N/A   Overcast
7:55 AM 57.2 °F 51.8 °F 82% 30.10 in 10.0 mi North 8.1 mph - 0.01 in   Mostly Cloudy
8:15 AM 57.2 °F 50.0 °F 77% 30.10 in 10.0 mi North 12.7 mph - N/A   Overcast
8:35 AM 59.0 °F 50.0 °F 72% 30.11 in 10.0 mi North 10.4 mph - N/A   Overcast
8:55 AM 59.0 °F 50.0 °F 72% 30.11 in 10.0 mi North 15.0 mph 19.6 mph N/A   Overcast
9:35 AM 60.8 °F 50.0 °F 68% 30.12 in 10.0 mi North 13.8 mph 18.4 mph N/A   Overcast
9:55 AM 60.8 °F 50.0 °F 68% 30.13 in 10.0 mi NNE 8.1 mph 16.1 mph N/A   Mostly Cloudy
10:15 AM 60.8 °F 51.8 °F 72% 30.12 in 10.0 mi North 10.4 mph - N/A   Overcast
10:35 AM 62.6 °F 51.8 °F 68% 30.13 in 10.0 mi NNE 9.2 mph 19.6 mph N/A   Mostly Cloudy
10:55 AM 62.6 °F 51.8 °F 68% 30.13 in 10.0 mi NNE 6.9 mph - N/A   Overcast
11:15 AM 62.6 °F 51.8 °F 68% 30.12 in 10.0 mi NNE 6.9 mph 10.4 mph N/A   Overcast
11:35 AM 64.4 °F 51.8 °F 64% 30.13 in 10.0 mi NNE 8.1 mph - N/A   Overcast
11:55 AM 64.4 °F 51.8 °F 64% 30.12 in 10.0 mi North 5.8 mph - N/A   Overcast
12:15 PM 68.0 °F 53.6 °F 60% 30.11 in 10.0 mi North 11.5 mph - N/A   Overcast
12:35 PM 68.0 °F 53.6 °F 60% 30.10 in 10.0 mi NNE 8.1 mph - N/A   Scattered Clouds
12:55 PM 69.8 °F 53.6 °F 56% 30.10 in 10.0 mi North 5.8 mph - 0.01 in   Mostly Cloudy
1:15 PM 69.8 °F 53.6 °F 56% 30.10 in 10.0 mi NNE 10.4 mph - N/A   Overcast
1:35 PM 69.8 °F 53.6 °F 56% 30.09 in 10.0 mi NNE 10.4 mph 16.1 mph N/A   Overcast
1:55 PM 69.8 °F 53.6 °F 56% 30.08 in 10.0 mi North 11.5 mph 17.3 mph N/A   Overcast
2:15 PM 68.0 °F 53.6 °F 60% 30.08 in 10.0 mi North 9.2 mph - N/A   Overcast
2:35 PM 69.8 °F 53.6 °F 56% 30.07 in 10.0 mi North 9.2 mph - N/A   Overcast
2:55 PM 69.8 °F 53.6 °F 56% 30.06 in 10.0 mi NNW 9.2 mph - N/A   Overcast
3:15 PM 69.8 °F 55.4 °F 60% 30.05 in 10.0 mi North 9.2 mph - N/A   Overcast
3:35 PM 69.8 °F 53.6 °F 56% 30.05 in 10.0 mi North 10.4 mph 16.1 mph N/A   Overcast
3:55 PM 69.8 °F 53.6 °F 56% 30.05 in 10.0 mi North 11.5 mph - 0.01 in   Overcast
4:15 PM 68.0 °F 53.6 °F 60% 30.05 in 10.0 mi NNE 8.1 mph - N/A   Overcast
4:35 PM 68.0 °F 53.6 °F 60% 30.05 in 10.0 mi North 11.5 mph - N/A   Overcast
4:55 PM 68.0 °F 53.6 °F 60% 30.05 in 10.0 mi NNE 6.9 mph - N/A   Overcast
5:15 PM 68.0 °F 51.8 °F 56% 30.05 in 10.0 mi North 9.2 mph - N/A   Overcast
5:35 PM 66.2 °F 51.8 °F 60% 30.06 in 10.0 mi NNE 8.1 mph - N/A   Overcast
5:55 PM 64.4 °F 51.8 °F 64% 30.06 in 10.0 mi NNE 6.9 mph - N/A   Overcast
6:35 PM 64.4 °F 51.8 °F 64% 30.06 in 10.0 mi NNE 4.6 mph - N/A   Overcast
6:55 PM 64.4 °F 51.8 °F 64% 30.06 in 10.0 mi North 5.8 mph - N/A   Overcast
7:15 PM 64.4 °F 53.6 °F 68% 30.06 in 10.0 mi NNE 3.5 mph - N/A   Overcast
7:35 PM 62.6 °F 53.6 °F 72% 30.06 in 10.0 mi NNE 3.5 mph - N/A   Overcast
7:55 PM 62.6 °F 51.8 °F 68% 30.06 in 10.0 mi NNE 4.6 mph - N/A   Overcast
8:15 PM 62.6 °F 51.8 °F 68% 30.06 in 10.0 mi Calm Calm - N/A   Overcast
8:35 PM 62.6 °F 51.8 °F 68% 30.06 in 10.0 mi Calm Calm - N/A   Overcast
8:55 PM 62.6 °F 53.6 °F 72% 30.05 in 10.0 mi NNE 3.5 mph - N/A   Overcast
9:15 PM 62.6 °F 53.6 °F 72% 30.05 in 10.0 mi North 5.8 mph - N/A   Overcast
9:35 PM 62.6 °F 51.8 °F 68% 30.05 in 10.0 mi NE 4.6 mph - 0.01 in   Overcast
9:55 PM 62.6 °F 51.8 °F 68% 30.05 in 10.0 mi NNE 3.5 mph - 0.01 in   Overcast
10:15 PM 62.6 °F 51.8 °F 68% 30.05 in 10.0 mi Calm Calm - N/A   Overcast
10:35 PM 62.6 °F 51.8 °F 68% 30.05 in 10.0 mi North 4.6 mph - N/A   Overcast
10:55 PM 60.8 °F 51.8 °F 72% 30.04 in 10.0 mi NNE 3.5 mph - N/A   Overcast
11:15 PM 60.8 °F 51.8 °F 72% 30.04 in 10.0 mi Calm Calm - N/A   Overcast
11:55 PM 60.8 °F 53.6 °F 77% 30.02 in 10.0 mi Calm Calm - N/A   Mostly Cloudy